Weather History for KPTW - March, 2013

Change the Weather History Date:

Friday, March 8, 2013

  Actual Average (KRDG) Record (KRDG)
Temperature  
Mean Temperature 37 °F 38 °F  
Max Temperature 44 °F 48 °F 81 °F (2000)
Min Temperature 30 °F 29 °F 5 °F (1989)
Degree Days  
Heating Degree Days 28 27  
Month to date heating degree days 223  
Since 1 July heating degree days 4265  
Cooling Degree Days 0 0  
Month to date cooling degree days 0  
Year to date cooling degree days 0  
Moisture  
Dew Point 25 °F    
Average Humidity 63    
Maximum Humidity 86    
Minimum Humidity 46    
Precipitation  
Precipitation 0.00 in 0.10 in 1.41 in (1931)
Month to date precipitation 0.72  
Year to date precipitation 6.25  
Sea Level Pressure  
Sea Level Pressure 30.14 in    
Wind  
Wind Speed 14 mph (NNW)    
Max Wind Speed 22 mph    
Max Gust Speed 36 mph    
Visibility 8 miles    
Events Snow    
T = Trace of Precipitation, MM = Missing Value Source: NWS Daily Summary

Daily Weather History Graph

Daily Weather History Graph

Search for Another Location

Airport or City:

Trip Planner

Search our weather history database for the weather conditions in past years. The results will help you decide how hot, cold, wet, or windy it might be!

Date:

Astronomy

Mar. 08, 2013 Rise Set
Actual Time 6:24 AM EST 6:01 PM EST
Civil Twilight 5:57 AM EST 6:28 PM EST
Nautical Twilight 5:26 AM EST 7:00 PM EST
Astronomical Twilight 4:54 AM EST 7:32 PM EST
Moon 4:07 AM EST (3/8) 2:54 PM EST (3/8)
Length of Visible Light 12h 31m
Length of Day
11h 37m
Waning Crescent, 12% of the Moon is Illuminated
Mar 8
Waning Crescent
Mar 11
New
Mar 19
First Quarter
Mar 27
Full
Apr 3
Last Quarter

Hourly Weather History & Observations

Time (EST) Temp. Windchill Dew Point Humidity Pressure Visibility Wind Dir Wind Speed Gust Speed Precip Events Conditions
12:54 AM 37.0 °F 28.5 °F 18.0 °F 46% 30.10 in 10.0 mi NNW 13.8 mph - N/A   Overcast
1:54 AM 35.1 °F 26.4 °F 21.0 °F 57% 30.11 in 10.0 mi NNW 12.7 mph 21.9 mph N/A   Overcast
2:54 AM 33.1 °F 24.4 °F 21.9 °F 64% 30.09 in 10.0 mi North 11.5 mph - N/A   Overcast
3:54 AM 33.1 °F 23.9 °F 21.9 °F 64% 30.09 in 10.0 mi North 12.7 mph 24.2 mph N/A   Overcast
4:54 AM 32.0 °F 21.6 °F 24.1 °F 73% 30.09 in 8.0 mi NNW 15.0 mph 21.9 mph 0.00 in Snow Light Snow
5:54 AM 30.9 °F 21.7 °F 25.0 °F 79% 30.09 in 8.0 mi NW 11.5 mph 19.6 mph 0.00 in Snow Light Snow
6:54 AM 30.9 °F 21.2 °F 26.1 °F 82% 30.10 in 9.0 mi NW 12.7 mph 17.3 mph 0.00 in   Overcast
7:50 AM 30.2 °F 20.2 °F 26.6 °F 86% 30.10 in 2.0 mi NNW 12.7 mph - 0.00 in Snow Light Snow
7:54 AM 30.9 °F 22.8 °F 27.0 °F 85% 30.11 in 1.8 mi NW 9.2 mph - 0.00 in Snow Light Snow
8:34 AM 32.0 °F 23.0 °F 26.6 °F 80% 30.10 in 3.0 mi NW 11.5 mph 19.6 mph 0.00 in Snow Light Snow
8:54 AM 32.0 °F 22.1 °F 27.0 °F 82% 30.10 in 4.0 mi NW 13.8 mph 23.0 mph 0.00 in Snow Light Snow
9:27 AM 33.8 °F 23.5 °F 26.6 °F 75% 30.10 in 5.0 mi NW 16.1 mph 21.9 mph 0.00 in Snow Light Snow
9:54 AM 34.0 °F 24.2 °F 26.1 °F 73% 30.11 in 9.0 mi NNW 15.0 mph 24.2 mph 0.00 in Snow Light Snow
10:54 AM 37.0 °F 27.0 °F 27.0 °F 67% 30.11 in 8.0 mi North 18.4 mph 27.6 mph 0.00 in Snow Light Snow
11:54 AM 39.0 °F 29.6 °F 26.1 °F 60% 30.12 in 10.0 mi NW 18.4 mph 26.5 mph 0.00 in   Overcast
12:54 PM 42.1 °F 33.9 °F 26.1 °F 53% 30.09 in 10.0 mi NNW 17.3 mph 29.9 mph N/A   Mostly Cloudy
1:54 PM 42.1 °F 33.9 °F 26.1 °F 53% 30.09 in 10.0 mi NNW 17.3 mph 29.9 mph N/A   Overcast
2:54 PM 43.0 °F 34.0 °F 26.1 °F 51% 30.10 in 10.0 mi NNW 21.9 mph 35.7 mph N/A   Overcast
3:54 PM 44.1 °F 37.1 °F 27.0 °F 51% 30.12 in 10.0 mi NNW 15.0 mph 23.0 mph N/A   Overcast
4:54 PM 44.1 °F 37.4 °F 27.0 °F 51% 30.15 in 10.0 mi North 13.8 mph 21.9 mph N/A   Overcast
5:54 PM 43.0 °F 35.1 °F 26.1 °F 51% 30.17 in 10.0 mi NNW 17.3 mph 26.5 mph N/A   Overcast
6:54 PM 41.0 °F 34.3 °F 25.0 °F 53% 30.19 in 10.0 mi NNW 11.5 mph 20.7 mph N/A   Scattered Clouds
7:54 PM 39.9 °F 33.4 °F 24.1 °F 53% 30.22 in 10.0 mi NNW 10.4 mph - N/A   Partly Cloudy
8:54 PM 41.0 °F 33.5 °F 23.0 °F 49% 30.24 in 10.0 mi North 13.8 mph 21.9 mph N/A   Overcast
9:54 PM 37.9 °F 30.9 °F 23.0 °F 55% 30.25 in 10.0 mi NNW 10.4 mph - N/A   Clear
10:54 PM 37.0 °F 29.3 °F 21.9 °F 54% 30.25 in 10.0 mi NNW 11.5 mph - N/A   Clear
11:54 PM 36.0 °F 28.5 °F 21.9 °F 57% 30.26 in 10.0 mi NNW 10.4 mph - N/A   Clear